Time,TemperatureF,DewpointF,PressureIn,WindDirection,WindDirectionDegrees,WindSpeedMPH,WindSpeedGustMPH,Humidity,HourlyPrecipIn,Conditions,Clouds,dailyrainin,SoftwareType,DateUTC
2013-03-03 00:00:00,26.6,21.6,30.15,WNW,286,4.0,11.0,81,0.00,,,0.00,Wunderground v.1.15,2013-03-03 05:00:00,
2013-03-03 00:05:00,26.5,21.5,30.15,NW,306,6.0,11.0,81,0.00,,,0.00,Wunderground v.1.15,2013-03-03 05:05:00,
2013-03-03 00:10:00,26.3,21.3,30.15,NW,325,6.0,6.0,81,0.00,,,0.00,Wunderground v.1.15,2013-03-03 05:10:00,
2013-03-03 00:20:00,26.2,21.5,30.15,WNW,296,3.0,11.0,82,0.00,,,0.00,Wunderground v.1.15,2013-03-03 05:20:00,
2013-03-03 00:25:00,26.1,21.4,30.15,NW,306,3.0,11.0,82,0.00,,,0.00,Wunderground v.1.15,2013-03-03 05:25:00,
2013-03-03 00:30:00,26.0,21.3,30.15,NW,318,4.0,4.0,82,0.00,,,0.00,Wunderground v.1.15,2013-03-03 05:30:00,
2013-03-03 00:35:00,25.8,21.1,30.15,WNW,294,4.0,11.0,82,0.00,,,0.00,Wunderground v.1.15,2013-03-03 05:35:00,
2013-03-03 00:40:00,25.6,21.2,30.15,NW,315,3.0,3.0,83,0.00,,,0.00,Wunderground v.1.15,2013-03-03 05:40:00,
2013-03-03 00:50:00,25.3,20.9,30.15,WNW,302,3.0,3.0,83,0.00,,,0.00,Wunderground v.1.15,2013-03-03 05:50:00,
2013-03-03 01:00:00,25.0,20.8,30.15,NW,313,2.0,11.0,84,0.00,,,0.00,Wunderground v.1.15,2013-03-03 06:00:00,
2013-03-03 01:05:00,24.8,20.9,30.15,NW,323,3.0,11.0,85,0.00,,,0.00,Wunderground v.1.15,2013-03-03 06:05:00,
2013-03-03 01:10:00,24.6,20.7,30.15,NW,323,2.0,11.0,85,0.00,,,0.00,Wunderground v.1.15,2013-03-03 06:10:00,
2013-03-03 01:15:00,24.4,20.8,30.15,NW,323,1.0,11.0,86,0.00,,,0.00,Wunderground v.1.15,2013-03-03 06:15:00,
2013-03-03 01:20:00,24.2,20.6,30.15,NW,323,1.0,11.0,86,0.00,,,0.00,Wunderground v.1.15,2013-03-03 06:20:00,
2013-03-03 01:25:00,24.0,20.7,30.15,NW,323,1.0,11.0,87,0.00,,,0.00,Wunderground v.1.15,2013-03-03 06:25:00,
2013-03-03 01:30:00,23.8,20.8,30.15,NW,323,1.0,11.0,88,0.00,,,0.00,Wunderground v.1.15,2013-03-03 06:30:00,
2013-03-03 01:40:00,23.6,20.6,30.16,WNW,289,3.0,3.0,88,0.00,,,0.00,Wunderground v.1.15,2013-03-03 06:40:00,
2013-03-03 01:45:00,23.6,20.6,30.16,NNW,329,4.0,6.0,88,0.00,,,0.00,Wunderground v.1.15,2013-03-03 06:45:00,
2013-03-03 01:50:00,23.6,20.6,30.16,WNW,285,4.0,11.0,88,0.00,,,0.00,Wunderground v.1.15,2013-03-03 06:50:00,
2013-03-03 01:55:00,23.4,20.1,30.15,NW,305,4.0,11.0,87,0.00,,,0.00,Wunderground v.1.15,2013-03-03 06:55:00,
2013-03-03 02:05:00,23.1,19.8,30.15,NW,315,4.0,6.0,87,0.00,,,0.00,Wunderground v.1.15,2013-03-03 07:05:00,
2013-03-03 02:10:00,23.0,19.7,30.15,WNW,300,4.0,11.0,87,0.00,,,0.00,Wunderground v.1.15,2013-03-03 07:10:00,
2013-03-03 02:15:00,22.8,19.5,30.15,NNW,331,4.0,11.0,87,0.00,,,0.00,Wunderground v.1.15,2013-03-03 07:15:00,
2013-03-03 02:20:00,22.6,19.3,30.15,WNW,292,3.0,3.0,87,0.00,,,0.00,Wunderground v.1.15,2013-03-03 07:20:00,
2013-03-03 02:30:00,22.2,18.9,30.15,NW,313,3.0,3.0,87,0.00,,,0.00,Wunderground v.1.15,2013-03-03 07:30:00,
2013-03-03 02:35:00,22.0,18.7,30.14,WNW,284,3.0,11.0,87,0.00,,,0.00,Wunderground v.1.15,2013-03-03 07:35:00,
2013-03-03 02:40:00,21.8,18.5,30.15,WNW,286,3.0,3.0,87,0.00,,,0.00,Wunderground v.1.15,2013-03-03 07:40:00,
2013-03-03 02:45:00,21.6,18.6,30.14,NW,309,2.0,11.0,88,0.00,,,0.00,Wunderground v.1.15,2013-03-03 07:45:00,
2013-03-03 02:50:00,21.5,18.5,30.14,NW,309,2.0,11.0,88,0.00,,,0.00,Wunderground v.1.15,2013-03-03 07:50:00,
2013-03-03 02:55:00,21.4,18.4,30.14,WNW,302,2.0,11.0,88,0.00,,,0.00,Wunderground v.1.15,2013-03-03 07:55:00,
2013-03-03 03:00:00,21.2,18.2,30.14,WNW,301,2.0,2.0,88,0.00,,,0.00,Wunderground v.1.15,2013-03-03 08:00:00,
2013-03-03 03:10:00,21.0,18.3,30.14,West,269,2.0,11.0,89,0.00,,,0.00,Wunderground v.1.15,2013-03-03 08:10:00,
2013-03-03 03:15:00,20.8,18.1,30.14,West,267,2.0,11.0,89,0.00,,,0.00,Wunderground v.1.15,2013-03-03 08:15:00,
2013-03-03 03:25:00,20.6,17.9,30.13,West,262,1.0,11.0,89,0.00,,,0.00,Wunderground v.1.15,2013-03-03 08:25:00,
2013-03-03 03:30:00,20.6,17.9,30.13,West,263,1.0,11.0,89,0.00,,,0.00,Wunderground v.1.15,2013-03-03 08:30:00,
2013-03-03 03:35:00,20.4,17.7,30.13,West,263,0.0,11.0,89,0.00,,,0.00,Wunderground v.1.15,2013-03-03 08:35:00,
2013-03-03 03:45:00,19.9,17.4,30.13,West,279,0.0,11.0,90,0.00,,,0.00,Wunderground v.1.15,2013-03-03 08:45:00,
2013-03-03 03:50:00,19.8,17.3,30.13,West,265,1.0,11.0,90,0.00,,,0.00,Wunderground v.1.15,2013-03-03 08:50:00,
2013-03-03 03:55:00,19.7,17.2,30.13,West,273,1.0,11.0,90,0.00,,,0.00,Wunderground v.1.15,2013-03-03 08:55:00,
2013-03-03 04:00:00,19.5,17.0,30.12,West,273,1.0,1.0,90,0.00,,,0.00,Wunderground v.1.15,2013-03-03 09:00:00,
2013-03-03 04:05:00,19.4,16.9,30.12,West,270,1.0,11.0,90,0.00,,,0.00,Wunderground v.1.15,2013-03-03 09:05:00,
2013-03-03 04:10:00,19.3,16.8,30.12,West,268,1.0,1.0,90,0.00,,,0.00,Wunderground v.1.15,2013-03-03 09:10:00,
2013-03-03 04:20:00,19.1,16.7,30.12,WNW,300,2.0,2.0,90,0.00,,,0.00,Wunderground v.1.15,2013-03-03 09:20:00,
2013-03-03 04:30:00,19.1,16.7,30.11,NW,304,2.0,2.0,90,0.00,,,0.00,Wunderground v.1.15,2013-03-03 09:30:00,
2013-03-03 04:35:00,19.1,16.9,30.11,WNW,289,1.0,11.0,91,0.00,,,0.00,Wunderground v.1.15,2013-03-03 09:35:00,
2013-03-03 04:40:00,19.1,16.7,30.12,West,263,0.0,11.0,90,0.00,,,0.00,Wunderground v.1.15,2013-03-03 09:40:00,
2013-03-03 04:45:00,19.0,16.6,30.12,WSW,238,1.0,11.0,90,0.00,,,0.00,Wunderground v.1.15,2013-03-03 09:45:00,
2013-03-03 04:55:00,19.1,16.9,30.12,WNW,300,2.0,11.0,91,0.00,,,0.00,Wunderground v.1.15,2013-03-03 09:55:00,
2013-03-03 05:00:00,19.1,16.7,30.12,WNW,287,3.0,11.0,90,0.00,,,0.00,Wunderground v.1.15,2013-03-03 10:00:00,
2013-03-03 05:05:00,19.2,16.7,30.11,WNW,293,3.0,11.0,90,0.00,,,0.00,Wunderground v.1.15,2013-03-03 10:05:00,
2013-03-03 05:10:00,19.2,16.7,30.12,WNW,292,4.0,11.0,90,0.00,,,0.00,Wunderground v.1.15,2013-03-03 10:10:00,
2013-03-03 05:15:00,19.1,16.4,30.12,West,277,3.0,11.0,89,0.00,,,0.00,Wunderground v.1.15,2013-03-03 10:15:00,
2013-03-03 05:25:00,19.1,16.7,30.12,WNW,288,4.0,11.0,90,0.00,,,0.00,Wunderground v.1.15,2013-03-03 10:25:00,
2013-03-03 05:30:00,19.1,16.7,30.12,NW,313,4.0,11.0,90,0.00,,,0.00,Wunderground v.1.15,2013-03-03 10:30:00,
2013-03-03 05:35:00,19.0,16.6,30.12,West,261,3.0,11.0,90,0.00,,,0.00,Wunderground v.1.15,2013-03-03 10:35:00,
2013-03-03 05:40:00,19.0,16.6,30.12,WNW,289,3.0,11.0,90,0.00,,,0.00,Wunderground v.1.15,2013-03-03 10:40:00,
2013-03-03 05:45:00,18.9,16.5,30.12,WNW,298,3.0,11.0,90,0.00,,,0.00,Wunderground v.1.15,2013-03-03 10:45:00,
2013-03-03 05:55:00,18.9,16.5,30.13,WNW,282,3.0,11.0,90,0.00,,,0.00,Wunderground v.1.15,2013-03-03 10:55:00,
2013-03-03 06:00:00,18.8,16.4,30.13,NW,323,2.0,3.0,90,0.00,,,0.00,Wunderground v.1.15,2013-03-03 11:00:00,
2013-03-03 06:10:00,18.8,16.1,30.13,NW,323,1.0,1.0,89,0.00,,,0.00,Wunderground v.1.15,2013-03-03 11:10:00,
2013-03-03 06:15:00,18.7,16.3,30.13,WNW,297,1.0,3.0,90,0.00,,,0.00,Wunderground v.1.15,2013-03-03 11:15:00,
2013-03-03 06:20:00,18.7,16.3,30.14,WNW,297,2.0,2.0,90,0.00,,,0.00,Wunderground v.1.15,2013-03-03 11:20:00,
2013-03-03 06:30:00,18.4,16.0,30.13,WNW,301,1.0,2.0,90,0.00,,,0.00,Wunderground v.1.15,2013-03-03 11:30:00,
2013-03-03 06:40:00,18.2,15.8,30.14,NW,306,2.0,3.0,90,0.00,,,0.00,Wunderground v.1.15,2013-03-03 11:40:00,
2013-03-03 06:45:00,18.2,15.8,30.14,WNW,300,2.0,3.0,90,0.00,,,0.00,Wunderground v.1.15,2013-03-03 11:45:00,
2013-03-03 06:50:00,18.2,15.8,30.14,WNW,288,2.0,2.0,90,0.00,,,0.00,Wunderground v.1.15,2013-03-03 11:50:00,
2013-03-03 06:55:00,18.2,15.8,30.14,WNW,288,1.0,2.0,90,0.00,,,0.00,Wunderground v.1.15,2013-03-03 11:55:00,
2013-03-03 07:00:00,18.1,15.7,30.14,WNW,288,0.0,0.0,90,0.00,,,0.00,Wunderground v.1.15,2013-03-03 12:00:00,
2013-03-03 07:05:00,18.0,15.6,30.14,WNW,288,0.0,2.0,90,0.00,,,0.00,Wunderground v.1.15,2013-03-03 12:05:00,
2013-03-03 07:10:00,17.8,15.4,30.14,WNW,288,0.0,7.0,90,0.00,,,0.00,Wunderground v.1.15,2013-03-03 12:10:00,
2013-03-03 07:15:00,17.6,15.2,30.14,WNW,288,0.0,7.0,90,0.00,,,0.00,Wunderground v.1.15,2013-03-03 12:15:00,
2013-03-03 07:25:00,17.1,14.9,30.14,WNW,288,0.0,7.0,91,0.00,,,0.00,Wunderground v.1.15,2013-03-03 12:25:00,
2013-03-03 07:30:00,17.0,14.8,30.14,WNW,288,0.0,7.0,91,0.00,,,0.00,Wunderground v.1.15,2013-03-03 12:30:00,
2013-03-03 07:35:00,17.1,15.2,30.15,WNW,288,1.0,7.0,92,0.00,,,0.00,Wunderground v.1.15,2013-03-03 12:35:00,
2013-03-03 07:40:00,17.1,15.2,30.15,WNW,288,1.0,7.0,92,0.00,,,0.00,Wunderground v.1.15,2013-03-03 12:40:00,
2013-03-03 07:45:00,17.2,15.3,30.15,WNW,288,1.0,7.0,92,0.00,,,0.00,Wunderground v.1.15,2013-03-03 12:45:00,
2013-03-03 07:50:00,17.6,15.7,30.15,WNW,288,1.0,1.0,92,0.00,,,0.00,Wunderground v.1.15,2013-03-03 12:50:00,
2013-03-03 07:55:00,18.0,16.1,30.15,WNW,283,2.0,3.0,92,0.00,,,0.00,Wunderground v.1.15,2013-03-03 12:55:00,
2013-03-03 08:00:00,18.4,16.2,30.15,WNW,303,2.0,7.0,91,0.00,,,0.00,Wunderground v.1.15,2013-03-03 13:00:00,
2013-03-03 08:05:00,18.8,16.4,30.16,NNW,338,3.0,7.0,90,0.00,,,0.00,Wunderground v.1.15,2013-03-03 13:05:00,
2013-03-03 08:10:00,19.2,16.7,30.15,NW,323,4.0,4.0,90,0.00,,,0.00,Wunderground v.1.15,2013-03-03 13:10:00,
2013-03-03 08:20:00,19.8,16.8,30.16,NW,321,3.0,7.0,88,0.00,,,0.00,Wunderground v.1.15,2013-03-03 13:20:00,
2013-03-03 08:25:00,20.1,17.1,30.16,NNW,331,3.0,7.0,88,0.00,,,0.00,Wunderground v.1.15,2013-03-03 13:25:00,
2013-03-03 08:30:00,20.5,17.2,30.16,NNW,348,4.0,4.0,87,0.00,,,0.00,Wunderground v.1.15,2013-03-03 13:30:00,
2013-03-03 08:35:00,20.7,17.2,30.16,NNW,338,3.0,5.0,86,0.00,,,0.00,Wunderground v.1.15,2013-03-03 13:35:00,
2013-03-03 08:40:00,21.0,17.2,30.16,NW,323,4.0,4.0,85,0.00,,,0.00,Wunderground v.1.15,2013-03-03 13:40:00,
2013-03-03 08:45:00,21.4,17.9,30.16,WNW,290,4.0,7.0,86,0.00,,,0.00,Wunderground v.1.15,2013-03-03 13:45:00,
2013-03-03 08:55:00,22.0,17.9,30.17,NNW,330,4.0,6.0,84,0.00,,,0.00,Wunderground v.1.15,2013-03-03 13:55:00,
2013-03-03 09:00:00,22.2,17.8,30.16,NW,313,5.0,5.0,83,0.00,,,0.00,Wunderground v.1.15,2013-03-03 14:00:00,
2013-03-03 09:05:00,22.2,17.5,30.16,NW,318,5.0,6.0,82,0.00,,,0.00,Wunderground v.1.15,2013-03-03 14:05:00,
2013-03-03 09:10:00,22.4,18.0,30.16,NNW,342,5.0,7.0,83,0.00,,,0.00,Wunderground v.1.15,2013-03-03 14:10:00,
2013-03-03 09:20:00,23.1,18.4,30.16,NW,304,5.0,7.0,82,0.00,,,0.00,Wunderground v.1.15,2013-03-03 14:20:00,
2013-03-03 09:30:00,24.2,19.5,30.16,WNW,301,3.0,7.0,82,0.00,,,0.00,Wunderground v.1.15,2013-03-03 14:30:00,
2013-03-03 09:35:00,24.5,19.2,30.16,NNW,348,4.0,7.0,80,0.00,,,0.00,Wunderground v.1.15,2013-03-03 14:35:00,
2013-03-03 09:40:00,24.6,19.0,30.16,WNW,302,5.0,7.0,79,0.00,,,0.00,Wunderground v.1.15,2013-03-03 14:40:00,
2013-03-03 09:45:00,24.9,19.6,30.16,NW,307,5.0,7.0,80,0.00,,,0.00,Wunderground v.1.15,2013-03-03 14:45:00,
2013-03-03 09:50:00,25.2,19.3,30.16,West,277,5.0,5.0,78,0.00,,,0.00,Wunderground v.1.15,2013-03-03 14:50:00,
2013-03-03 09:55:00,25.4,19.8,30.16,WNW,292,4.0,6.0,79,0.00,,,0.00,Wunderground v.1.15,2013-03-03 14:55:00,
2013-03-03 10:00:00,25.6,20.0,30.15,West,273,4.0,7.0,79,0.00,,,0.00,Wunderground v.1.15,2013-03-03 15:00:00,
2013-03-03 10:10:00,25.7,19.8,30.15,WNW,284,5.0,7.0,78,0.00,,,0.00,Wunderground v.1.15,2013-03-03 15:10:00,
2013-03-03 10:15:00,26.0,20.1,30.15,WNW,285,4.0,7.0,78,0.00,,,0.00,Wunderground v.1.15,2013-03-03 15:15:00,
2013-03-03 10:20:00,26.3,20.4,30.15,NW,309,4.0,4.0,78,0.00,,,0.00,Wunderground v.1.15,2013-03-03 15:20:00,
2013-03-03 10:25:00,26.6,20.1,30.15,West,279,4.0,7.0,76,0.00,,,0.00,Wunderground v.1.15,2013-03-03 15:25:00,
2013-03-03 10:30:00,26.7,20.1,30.15,NW,320,2.0,7.0,76,0.00,,,0.00,Wunderground v.1.15,2013-03-03 15:30:00,
2013-03-03 10:40:00,27.4,20.2,30.15,West,280,3.0,7.0,74,0.00,,,0.00,Wunderground v.1.15,2013-03-03 15:40:00,
2013-03-03 10:45:00,27.6,20.1,30.15,NW,317,3.0,7.0,73,0.00,,,0.00,Wunderground v.1.15,2013-03-03 15:45:00,
2013-03-03 10:50:00,27.6,20.4,30.15,NW,321,3.0,3.0,74,0.00,,,0.00,Wunderground v.1.15,2013-03-03 15:50:00,
2013-03-03 11:00:00,28.6,20.7,30.14,WNW,288,2.0,7.0,72,0.00,,,0.00,Wunderground v.1.15,2013-03-03 16:00:00,
2013-03-03 11:05:00,28.3,20.4,30.14,NW,307,4.0,7.0,72,0.00,,,0.00,Wunderground v.1.15,2013-03-03 16:05:00,
2013-03-03 11:15:00,28.8,21.6,30.14,West,271,3.0,5.0,74,0.00,,,0.00,Wunderground v.1.15,2013-03-03 16:15:00,
2013-03-03 11:20:00,29.3,21.7,30.14,NW,313,4.0,4.0,73,0.00,,,0.00,Wunderground v.1.15,2013-03-03 16:20:00,
2013-03-03 11:25:00,29.6,22.3,30.14,West,274,4.0,7.0,74,0.00,,,0.00,Wunderground v.1.15,2013-03-03 16:25:00,
2013-03-03 11:30:00,29.5,20.9,30.14,NNW,332,3.0,7.0,70,0.00,,,0.00,Wunderground v.1.15,2013-03-03 16:30:00,
2013-03-03 11:40:00,29.7,22.1,30.14,NW,306,3.0,7.0,73,0.00,,,0.00,Wunderground v.1.15,2013-03-03 16:40:00,
2013-03-03 11:45:00,29.8,21.9,30.14,West,269,4.0,7.0,72,0.00,,,0.00,Wunderground v.1.15,2013-03-03 16:45:00,
2013-03-03 11:50:00,29.5,20.9,30.14,NW,319,4.0,4.0,70,0.00,,,0.00,Wunderground v.1.15,2013-03-03 16:50:00,
2013-03-03 11:55:00,29.5,21.9,30.14,WNW,288,3.0,7.0,73,0.00,,,0.00,Wunderground v.1.15,2013-03-03 16:55:00,
2013-03-03 12:00:00,30.0,22.7,30.13,WNW,294,3.0,8.0,74,0.00,,,0.00,Wunderground v.1.15,2013-03-03 17:00:00,
2013-03-03 12:05:00,30.7,23.1,30.13,West,273,3.0,8.0,73,0.00,,,0.00,Wunderground v.1.15,2013-03-03 17:05:00,
2013-03-03 12:10:00,31.0,22.7,30.13,WSW,240,4.0,4.0,71,0.00,,,0.00,Wunderground v.1.15,2013-03-03 17:10:00,
2013-03-03 12:20:00,31.1,22.1,30.13,NNW,328,3.0,7.0,69,0.00,,,0.00,Wunderground v.1.15,2013-03-03 17:20:00,
2013-03-03 12:25:00,30.3,21.0,30.13,NW,313,3.0,7.0,68,0.00,,,0.00,Wunderground v.1.15,2013-03-03 17:25:00,
2013-03-03 12:35:00,31.0,22.4,30.13,NW,324,2.0,7.0,70,0.00,,,0.00,Wunderground v.1.15,2013-03-03 17:35:00,
2013-03-03 12:40:00,31.3,22.6,30.13,NW,321,2.0,7.0,70,0.00,,,0.00,Wunderground v.1.15,2013-03-03 17:40:00,
2013-03-03 12:45:00,30.8,21.1,30.12,NW,317,2.0,7.0,67,0.00,,,0.00,Wunderground v.1.15,2013-03-03 17:45:00,
2013-03-03 12:55:00,32.4,22.7,30.12,SSW,204,3.0,7.0,67,0.00,,,0.00,Wunderground v.1.15,2013-03-03 17:55:00,
2013-03-03 13:00:00,32.7,21.9,30.12,WSW,254,3.0,7.0,64,0.00,,,0.00,Wunderground v.1.15,2013-03-03 18:00:00,
2013-03-03 13:05:00,32.9,22.4,30.12,West,271,3.0,7.0,65,0.00,,,0.00,Wunderground v.1.15,2013-03-03 18:05:00,
2013-03-03 13:10:00,33.2,21.6,30.11,West,276,2.0,2.0,62,0.00,,,0.00,Wunderground v.1.15,2013-03-03 18:10:00,
2013-03-03 13:20:00,33.7,22.4,30.11,WNW,286,3.0,7.0,63,0.00,,,0.00,Wunderground v.1.15,2013-03-03 18:20:00,
2013-03-03 13:25:00,33.2,21.2,30.11,NW,307,4.0,7.0,61,0.00,,,0.00,Wunderground v.1.15,2013-03-03 18:25:00,
2013-03-03 13:30:00,32.6,21.0,30.11,NW,318,5.0,5.0,62,0.00,,,0.01,Wunderground v.1.15,2013-03-03 18:30:00,
2013-03-03 13:35:00,32.5,21.3,30.11,WNW,300,6.0,6.0,63,0.00,,,0.01,Wunderground v.1.15,2013-03-03 18:35:00,
2013-03-03 13:40:00,33.0,21.8,30.10,West,275,5.0,5.0,63,0.00,,,0.01,Wunderground v.1.15,2013-03-03 18:40:00,
2013-03-03 13:45:00,33.4,21.8,30.10,West,259,3.0,5.0,62,0.00,,,0.01,Wunderground v.1.15,2013-03-03 18:45:00,
2013-03-03 13:50:00,33.6,21.6,30.10,NW,305,3.0,5.0,61,0.00,,,0.01,Wunderground v.1.15,2013-03-03 18:50:00,
2013-03-03 13:55:00,32.9,20.9,30.10,NNW,338,3.0,6.0,61,0.00,,,0.01,Wunderground v.1.15,2013-03-03 18:55:00,
2013-03-03 14:05:00,34.0,21.6,30.10,NW,326,3.0,4.0,60,0.00,,,0.01,Wunderground v.1.15,2013-03-03 19:05:00,
2013-03-03 14:10:00,33.2,21.6,30.10,NW,320,3.0,3.0,62,0.00,,,0.01,Wunderground v.1.15,2013-03-03 19:10:00,
2013-03-03 14:15:00,32.0,20.4,30.10,NW,319,5.0,7.0,62,0.00,,,0.01,Wunderground v.1.15,2013-03-03 19:15:00,
2013-03-03 14:20:00,32.1,21.3,30.10,NW,315,4.0,4.0,64,0.00,,,0.01,Wunderground v.1.15,2013-03-03 19:20:00,
2013-03-03 14:30:00,32.5,20.5,30.10,NW,307,3.0,3.0,61,0.00,,,0.01,Wunderground v.1.15,2013-03-03 19:30:00,
2013-03-03 14:35:00,32.3,20.0,30.10,NNW,344,3.0,11.0,60,0.00,,,0.01,Wunderground v.1.15,2013-03-03 19:35:00,
2013-03-03 14:40:00,33.4,22.1,30.09,WNW,296,2.0,11.0,63,0.00,,,0.01,Wunderground v.1.15,2013-03-03 19:40:00,
2013-03-03 14:45:00,33.1,21.1,30.09,NW,319,4.0,11.0,61,0.00,,,0.01,Wunderground v.1.15,2013-03-03 19:45:00,
2013-03-03 14:50:00,32.6,20.2,30.09,NNW,340,5.0,11.0,60,0.00,,,0.01,Wunderground v.1.15,2013-03-03 19:50:00,
2013-03-03 14:55:00,33.0,21.0,30.09,North,355,4.0,11.0,61,0.00,,,0.01,Wunderground v.1.15,2013-03-03 19:55:00,
2013-03-03 15:00:00,33.7,20.9,30.09,West,273,4.0,4.0,59,0.00,,,0.01,Wunderground v.1.15,2013-03-03 20:00:00,
2013-03-03 15:05:00,34.0,21.2,30.09,NNW,338,4.0,7.0,59,0.00,,,0.01,Wunderground v.1.15,2013-03-03 20:05:00,
2013-03-03 15:10:00,34.3,21.0,30.09,NW,305,5.0,5.0,58,0.00,,,0.01,Wunderground v.1.15,2013-03-03 20:10:00,
2013-03-03 15:15:00,34.2,19.7,30.09,SSW,199,5.0,7.0,55,0.00,,,0.01,Wunderground v.1.15,2013-03-03 20:15:00,
2013-03-03 15:25:00,33.6,20.8,30.09,NNW,329,6.0,11.0,59,0.00,,,0.01,Wunderground v.1.15,2013-03-03 20:25:00,
2013-03-03 15:30:00,32.9,20.9,30.09,WNW,290,5.0,11.0,61,0.00,,,0.01,Wunderground v.1.15,2013-03-03 20:30:00,
2013-03-03 15:35:00,32.2,20.2,30.09,NW,308,5.0,11.0,61,0.00,,,0.01,Wunderground v.1.15,2013-03-03 20:35:00,
2013-03-03 15:40:00,32.6,19.8,30.09,NW,318,3.0,3.0,59,0.00,,,0.01,Wunderground v.1.15,2013-03-03 20:40:00,
2013-03-03 15:45:00,32.5,20.1,30.09,West,277,3.0,11.0,60,0.00,,,0.01,Wunderground v.1.15,2013-03-03 20:45:00,
2013-03-03 15:50:00,32.3,20.0,30.09,WNW,292,3.0,3.0,60,0.00,,,0.01,Wunderground v.1.15,2013-03-03 20:50:00,
2013-03-03 15:55:00,32.6,20.2,30.09,NW,309,3.0,11.0,60,0.00,,,0.01,Wunderground v.1.15,2013-03-03 20:55:00,
2013-03-03 16:05:00,32.5,19.7,30.08,West,259,3.0,11.0,59,0.00,,,0.01,Wunderground v.1.15,2013-03-03 21:05:00,
2013-03-03 16:10:00,32.5,20.1,30.09,WNW,289,3.0,11.0,60,0.00,,,0.01,Wunderground v.1.15,2013-03-03 21:10:00,
2013-03-03 16:20:00,32.5,19.7,30.09,West,269,3.0,3.0,59,0.00,,,0.01,Wunderground v.1.15,2013-03-03 21:20:00,
2013-03-03 16:25:00,33.1,20.7,30.08,West,281,2.0,11.0,60,0.00,,,0.01,Wunderground v.1.15,2013-03-03 21:25:00,
2013-03-03 16:30:00,33.4,19.8,30.08,NW,325,3.0,3.0,57,0.00,,,0.01,Wunderground v.1.15,2013-03-03 21:30:00,
2013-03-03 16:35:00,33.6,20.4,30.09,WSW,258,3.0,6.0,58,0.00,,,0.01,Wunderground v.1.15,2013-03-03 21:35:00,
2013-03-03 16:40:00,33.1,20.3,30.09,West,275,5.0,5.0,59,0.00,,,0.01,Wunderground v.1.15,2013-03-03 21:40:00,
2013-03-03 16:45:00,32.7,20.3,30.09,West,279,5.0,11.0,60,0.00,,,0.01,Wunderground v.1.15,2013-03-03 21:45:00,
2013-03-03 16:55:00,34.0,21.2,30.09,NW,322,2.0,9.0,59,0.00,,,0.01,Wunderground v.1.15,2013-03-03 21:55:00,
2013-03-03 17:00:00,34.1,21.3,30.09,WNW,294,4.0,11.0,59,0.00,,,0.01,Wunderground v.1.15,2013-03-03 22:00:00,
2013-03-03 17:05:00,33.3,20.5,30.09,West,279,5.0,11.0,59,0.00,,,0.01,Wunderground v.1.15,2013-03-03 22:05:00,
2013-03-03 17:10:00,32.6,20.2,30.09,West,268,5.0,11.0,60,0.00,,,0.01,Wunderground v.1.15,2013-03-03 22:10:00,
2013-03-03 17:15:00,32.9,20.9,30.09,WNW,295,5.0,11.0,61,0.00,,,0.01,Wunderground v.1.15,2013-03-03 22:15:00,
2013-03-03 17:25:00,33.4,20.6,30.09,West,273,4.0,11.0,59,0.00,,,0.01,Wunderground v.1.15,2013-03-03 22:25:00,
2013-03-03 17:35:00,33.4,20.2,30.09,WNW,303,5.0,11.0,58,0.00,,,0.01,Wunderground v.1.15,2013-03-03 22:35:00,
2013-03-03 17:40:00,33.2,20.0,30.09,WNW,292,5.0,5.0,58,0.00,,,0.01,Wunderground v.1.15,2013-03-03 22:40:00,
2013-03-03 17:45:00,33.1,19.9,30.09,WNW,288,5.0,11.0,58,0.00,,,0.01,Wunderground v.1.15,2013-03-03 22:45:00,
2013-03-03 17:50:00,33.2,19.6,30.09,West,265,3.0,11.0,57,0.00,,,0.01,Wunderground v.1.15,2013-03-03 22:50:00,
2013-03-03 17:55:00,33.0,19.8,30.09,NW,304,3.0,11.0,58,0.00,,,0.01,Wunderground v.1.15,2013-03-03 22:55:00,
2013-03-03 18:00:00,32.5,19.3,30.09,WNW,288,4.0,4.0,58,0.00,,,0.01,Wunderground v.1.15,2013-03-03 23:00:00,
2013-03-03 18:05:00,32.2,20.2,30.09,WNW,300,3.0,11.0,61,0.00,,,0.01,Wunderground v.1.15,2013-03-03 23:05:00,
2013-03-03 18:10:00,32.0,20.1,30.09,WNW,302,3.0,11.0,61,0.00,,,0.01,Wunderground v.1.15,2013-03-03 23:10:00,
2013-03-03 18:15:00,31.9,19.6,30.09,NW,308,4.0,11.0,60,0.00,,,0.01,Wunderground v.1.15,2013-03-03 23:15:00,
2013-03-03 18:20:00,31.7,19.8,30.09,NW,315,4.0,4.0,61,0.00,,,0.01,Wunderground v.1.15,2013-03-03 23:20:00,
2013-03-03 18:30:00,31.4,20.2,30.09,NW,304,3.0,3.0,63,0.00,,,0.01,Wunderground v.1.15,2013-03-03 23:30:00,
2013-03-03 18:40:00,31.0,20.2,30.09,WNW,294,2.0,2.0,64,0.00,,,0.01,Wunderground v.1.15,2013-03-03 23:40:00,
2013-03-03 18:45:00,30.7,20.3,30.09,WNW,294,1.0,11.0,65,0.00,,,0.01,Wunderground v.1.15,2013-03-03 23:45:00,
2013-03-03 18:50:00,30.5,20.8,30.09,WNW,294,1.0,1.0,67,0.00,,,0.01,Wunderground v.1.15,2013-03-03 23:50:00,
2013-03-03 18:55:00,30.1,20.5,30.10,WNW,294,0.0,11.0,67,0.00,,,0.01,Wunderground v.1.15,2013-03-03 23:55:00,
2013-03-03 19:00:00,29.8,20.5,30.10,WNW,294,0.0,11.0,68,0.00,,,0.01,Wunderground v.1.15,2013-03-04 00:00:00,
2013-03-03 19:05:00,29.6,20.3,30.10,WNW,294,1.0,11.0,68,0.00,,,0.01,Wunderground v.1.15,2013-03-04 00:05:00,
2013-03-03 19:10:00,29.4,20.5,30.10,WNW,294,1.0,1.0,69,0.00,,,0.01,Wunderground v.1.15,2013-03-04 00:10:00,
2013-03-03 19:15:00,29.2,20.6,30.10,WNW,294,0.0,11.0,70,0.00,,,0.01,Wunderground v.1.15,2013-03-04 00:15:00,
2013-03-03 19:20:00,28.8,20.2,30.09,WNW,294,0.0,11.0,70,0.00,,,0.01,Wunderground v.1.15,2013-03-04 00:20:00,
2013-03-03 19:30:00,28.1,20.2,30.10,WNW,294,0.0,11.0,72,0.00,,,0.01,Wunderground v.1.15,2013-03-04 00:30:00,
2013-03-03 19:35:00,27.7,19.8,30.10,WNW,294,0.0,11.0,72,0.00,,,0.01,Wunderground v.1.15,2013-03-04 00:35:00,
2013-03-03 19:40:00,27.3,19.8,30.10,WNW,294,0.0,11.0,73,0.00,,,0.01,Wunderground v.1.15,2013-03-04 00:40:00,
2013-03-03 19:45:00,27.1,19.9,30.10,WNW,294,0.0,11.0,74,0.00,,,0.01,Wunderground v.1.15,2013-03-04 00:45:00,
2013-03-03 19:50:00,26.9,20.3,30.09,WNW,294,0.0,11.0,76,0.00,,,0.01,Wunderground v.1.15,2013-03-04 00:50:00,
2013-03-03 19:55:00,26.8,19.9,30.10,WNW,294,0.0,11.0,75,0.00,,,0.01,Wunderground v.1.15,2013-03-04 00:55:00,
2013-03-03 20:00:00,26.7,19.5,30.10,WNW,294,0.0,11.0,74,0.00,,,0.01,Wunderground v.1.15,2013-03-04 01:00:00,
2013-03-03 20:05:00,26.5,19.6,30.09,WNW,294,0.0,11.0,75,0.00,,,0.01,Wunderground v.1.15,2013-03-04 01:05:00,
2013-03-03 20:15:00,26.3,20.4,30.10,WNW,294,0.0,11.0,78,0.00,,,0.01,Wunderground v.1.15,2013-03-04 01:15:00,
2013-03-03 20:20:00,26.2,20.0,30.10,WNW,294,0.0,11.0,77,0.00,,,0.01,Wunderground v.1.15,2013-03-04 01:20:00,
2013-03-03 20:25:00,26.1,20.5,30.10,WNW,294,0.0,11.0,79,0.00,,,0.01,Wunderground v.1.15,2013-03-04 01:25:00,
2013-03-03 20:30:00,26.0,21.0,30.10,WNW,294,0.0,11.0,81,0.00,,,0.01,Wunderground v.1.15,2013-03-04 01:30:00,
2013-03-03 20:35:00,25.9,20.0,30.10,WNW,294,0.0,11.0,78,0.00,,,0.01,Wunderground v.1.15,2013-03-04 01:35:00,
2013-03-03 20:40:00,25.6,19.7,30.10,WNW,294,0.0,11.0,78,0.00,,,0.01,Wunderground v.1.15,2013-03-04 01:40:00,
2013-03-03 20:45:00,25.4,20.1,30.10,WNW,294,0.0,11.0,80,0.00,,,0.01,Wunderground v.1.15,2013-03-04 01:45:00,
2013-03-03 20:55:00,25.1,19.5,30.10,WNW,294,0.0,11.0,79,0.00,,,0.01,Wunderground v.1.15,2013-03-04 01:55:00,
2013-03-03 21:05:00,24.8,19.2,30.10,WNW,294,0.0,11.0,79,0.00,,,0.01,Wunderground v.1.15,2013-03-04 02:05:00,
2013-03-03 21:10:00,24.8,19.5,30.10,WNW,294,0.0,11.0,80,0.00,,,0.01,Wunderground v.1.15,2013-03-04 02:10:00,
2013-03-03 21:15:00,24.8,20.1,30.10,WNW,294,0.0,11.0,82,0.00,,,0.01,Wunderground v.1.15,2013-03-04 02:15:00,
2013-03-03 21:20:00,24.8,19.8,30.10,WNW,294,0.0,11.0,81,0.00,,,0.01,Wunderground v.1.15,2013-03-04 02:20:00,
2013-03-03 21:30:00,24.7,19.7,30.10,WNW,294,0.0,11.0,81,0.00,,,0.01,Wunderground v.1.15,2013-03-04 02:30:00,
2013-03-03 21:35:00,24.5,19.5,30.10,WNW,294,0.0,11.0,81,0.00,,,0.01,Wunderground v.1.15,2013-03-04 02:35:00,
2013-03-03 21:40:00,24.4,19.4,30.10,WNW,294,0.0,11.0,81,0.00,,,0.01,Wunderground v.1.15,2013-03-04 02:40:00,
2013-03-03 21:50:00,24.1,19.4,30.10,WNW,294,0.0,11.0,82,0.00,,,0.01,Wunderground v.1.15,2013-03-04 02:50:00,
2013-03-03 21:55:00,23.8,18.8,30.10,WNW,294,0.0,11.0,81,0.00,,,0.01,Wunderground v.1.15,2013-03-04 02:55:00,
2013-03-03 22:00:00,23.6,18.9,30.10,WNW,294,0.0,11.0,82,0.00,,,0.01,Wunderground v.1.15,2013-03-04 03:00:00,
2013-03-03 22:05:00,23.5,19.1,30.10,WNW,294,0.0,11.0,83,0.00,,,0.01,Wunderground v.1.15,2013-03-04 03:05:00,
2013-03-03 22:10:00,23.4,19.8,30.10,WNW,294,0.0,11.0,86,0.00,,,0.01,Wunderground v.1.15,2013-03-04 03:10:00,
2013-03-03 22:15:00,23.4,19.6,30.10,WNW,294,0.0,11.0,85,0.00,,,0.01,Wunderground v.1.15,2013-03-04 03:15:00,
2013-03-03 22:25:00,22.9,18.8,30.10,WNW,294,0.0,11.0,84,0.00,,,0.01,Wunderground v.1.15,2013-03-04 03:25:00,
2013-03-03 22:30:00,22.8,18.7,30.10,WNW,294,0.0,11.0,84,0.00,,,0.01,Wunderground v.1.15,2013-03-04 03:30:00,
2013-03-03 22:35:00,22.7,18.6,30.10,WNW,294,0.0,11.0,84,0.00,,,0.01,Wunderground v.1.15,2013-03-04 03:35:00,
2013-03-03 22:40:00,22.5,18.4,30.10,WNW,294,0.0,11.0,84,0.00,,,0.01,Wunderground v.1.15,2013-03-04 03:40:00,
2013-03-03 22:45:00,22.2,18.4,30.11,WNW,294,0.0,11.0,85,0.00,,,0.01,Wunderground v.1.15,2013-03-04 03:45:00,
2013-03-03 22:50:00,22.0,18.7,30.11,WNW,294,0.0,11.0,87,0.00,,,0.01,Wunderground v.1.15,2013-03-04 03:50:00,
2013-03-03 22:55:00,22.0,19.0,30.11,WNW,294,0.0,11.0,88,0.00,,,0.01,Wunderground v.1.15,2013-03-04 03:55:00,
2013-03-03 23:05:00,22.1,19.9,30.11,WNW,294,0.0,11.0,91,0.00,,,0.01,Wunderground v.1.15,2013-03-04 04:05:00,
2013-03-03 23:10:00,22.2,20.0,30.11,WNW,294,0.0,11.0,91,0.00,,,0.01,Wunderground v.1.15,2013-03-04 04:10:00,
2013-03-03 23:15:00,22.2,20.0,30.11,WNW,294,0.0,11.0,91,0.00,,,0.01,Wunderground v.1.15,2013-03-04 04:15:00,
2013-03-03 23:20:00,22.1,19.6,30.11,WNW,294,0.0,11.0,90,0.00,,,0.01,Wunderground v.1.15,2013-03-04 04:20:00,
2013-03-03 23:25:00,22.0,19.5,30.11,WNW,294,0.0,11.0,90,0.00,,,0.01,Wunderground v.1.15,2013-03-04 04:25:00,
2013-03-03 23:30:00,21.8,19.3,30.11,WNW,294,0.0,11.0,90,0.00,,,0.01,Wunderground v.1.15,2013-03-04 04:30:00,
2013-03-03 23:35:00,21.6,18.9,30.11,WNW,294,0.0,11.0,89,0.00,,,0.01,Wunderground v.1.15,2013-03-04 04:35:00,
2013-03-03 23:40:00,21.4,18.9,30.11,WNW,294,0.0,11.0,90,0.00,,,0.01,Wunderground v.1.15,2013-03-04 04:40:00,
2013-03-03 23:45:00,21.3,18.8,30.12,WNW,294,0.0,11.0,90,0.00,,,0.01,Wunderground v.1.15,2013-03-04 04:45:00,
2013-03-03 23:50:00,21.3,18.8,30.12,WNW,294,0.0,11.0,90,0.00,,,0.01,Wunderground v.1.15,2013-03-04 04:50:00,
2013-03-03 23:55:00,21.2,18.7,30.12,WNW,294,0.0,11.0,90,0.00,,,0.01,Wunderground v.1.15,2013-03-04 04:55:00,